Greenville, AL

12:44 AM CST on December 17, 2017 (GMT -0600)
Greenville Municipal

Weather History for KPRN - September, 2012

Change the Weather History Date:

Sunday, September 16, 2012

  Actual Average Record
Temperature  
Mean Temperature 79 °F -  
Max Temperature 88 °F 88 °F 98 °F (1972)
Min Temperature 70 °F 65 °F 50 °F (1961)
Cooling Degree Days 14    
Growing Degree Days 29 (Base 50)    
Moisture  
Dew Point 69 °F    
Average Humidity 78    
Maximum Humidity 97    
Minimum Humidity 49    
Precipitation  
Precipitation 0.32 in - - ()
Sea Level Pressure  
Sea Level Pressure 30.02 in    
Wind  
Wind Speed 2 mph (ESE)    
Max Wind Speed 10 mph    
Max Gust Speed 18 mph    
Visibility 10 miles    
Events Rain , Thunderstorm    
Averages and records for this station are not official NWS values.
T = Trace of Precipitation, MM = Missing Value Source: NWS Daily Summary

Daily Weather History Graph

Daily Weather History Graph

Search for Another Location

Airport or City:

Trip Planner

Search our weather history database for the weather conditions in past years. The results will help you decide how hot, cold, wet, or windy it might be!

Date:

Astronomy

Sep. 16, 2012 Rise Set
Actual Time 6:31 AM CDT 6:50 PM CDT
Civil Twilight 6:06 AM CDT 7:14 PM CDT
Nautical Twilight 5:38 AM CDT 7:43 PM CDT
Astronomical Twilight 5:09 AM CDT 8:12 PM CDT
Moon 7:04 AM CDT (9/16) 7:03 PM CDT (9/16)
Length of Visible Light 13h 07m
Length of Day
12h 19m
New Moon, 0% of the Moon is Illuminated
Sep 16
New Moon
Sep 22
First Quarter
Sep 29
Full
Oct 8
Last Quarter
Oct 15
New

Hourly Weather History & Observations

Time (CDT) Temp. Heat Index Dew Point Humidity Pressure Visibility Wind Dir Wind Speed Gust Speed Precip Events Conditions
12:56 AM 71.1 °F - 68.0 °F 90% 30.06 in 10.0 mi Calm Calm - N/A   Overcast
1:56 AM 71.1 °F - 68.0 °F 90% 30.05 in 10.0 mi Calm Calm - N/A   Mostly Cloudy
2:56 AM 70.0 °F - 68.0 °F 93% 30.04 in 10.0 mi Calm Calm - N/A   Overcast
3:56 AM 71.1 °F - 68.0 °F 90% 30.03 in 10.0 mi Calm Calm - N/A   Overcast
4:56 AM 71.1 °F - 68.0 °F 90% 30.03 in 10.0 mi Calm Calm - N/A   Overcast
5:56 AM 71.1 °F - 68.0 °F 90% 30.04 in 10.0 mi Calm Calm - N/A   Overcast
6:56 AM 70.0 °F - 68.0 °F 93% 30.05 in 10.0 mi Calm Calm - N/A   Overcast
7:56 AM 73.0 °F - 69.1 °F 87% 30.06 in 10.0 mi Calm Calm - N/A   Overcast
8:56 AM 77.0 °F - 70.0 °F 79% 30.07 in 10.0 mi East 3.5 mph - N/A   Overcast
9:56 AM 81.0 °F 84.1 °F 69.1 °F 67% 30.07 in 10.0 mi ENE 4.6 mph - N/A   Scattered Clouds
10:56 AM 84.9 °F 88.8 °F 69.1 °F 59% 30.06 in 10.0 mi South 4.6 mph - N/A   Clear
11:56 AM 84.9 °F 88.2 °F 68.0 °F 57% 30.05 in 10.0 mi SE 4.6 mph - N/A   Scattered Clouds
12:56 PM 86.0 °F 89.4 °F 68.0 °F 55% 30.03 in 10.0 mi SSE 4.6 mph - N/A   Scattered Clouds
1:56 PM 86.0 °F 88.8 °F 66.9 °F 53% 30.00 in 10.0 mi Calm Calm - N/A   Mostly Cloudy
2:56 PM 88.0 °F 90.7 °F 66.9 °F 49% 29.98 in 10.0 mi Variable 4.6 mph - N/A   Clear
3:56 PM 88.0 °F 91.4 °F 68.0 °F 51% 29.96 in 10.0 mi East 5.8 mph - N/A   Partly Cloudy
4:56 PM 84.9 °F 88.2 °F 68.0 °F 57% 29.96 in 10.0 mi East 6.9 mph - N/A   Scattered Clouds
5:56 PM 80.1 °F 83.2 °F 70.0 °F 71% 29.96 in 10.0 mi South 10.4 mph 18.4 mph N/A Thunderstorm Thunderstorm
6:56 PM - - - N/A% - - North - - N/A   Unknown
7:04 PM 73.4 °F - 69.8 °F 88% 30.01 in 10.0 mi Variable 3.5 mph - 0.00 in Rain Light Rain
7:56 PM 72.0 °F - 70.0 °F 93% 30.01 in 4.0 mi East 5.8 mph - 0.26 in Rain Heavy Rain
8:56 PM 73.0 °F - 71.1 °F 93% 30.01 in 10.0 mi Calm Calm - 0.06 in Rain Light Rain
9:56 PM 73.0 °F - 71.1 °F 93% 30.00 in 10.0 mi Calm Calm - 0.00 in Rain Light Rain
10:56 PM 72.0 °F - 71.1 °F 97% 30.00 in 9.0 mi Calm Calm - 0.00 in   Overcast
11:56 PM 72.0 °F - 70.0 °F 93% 30.00 in 10.0 mi Calm Calm - N/A   Unknown